Location: Newark
(35.2672°N, 80.7344°W)
Time: 20:25:59
(UTC+00:00)

Vanguard 2 Rocket - Pass Details

Date: 18 January 2020
Orbit: 554 x 3327 km, 32.9° (Epoch: 22 February)

Event Time Altitude Azimuth Distance (km) Brightness Sun altitude
Rises 11:56:59 0° 240° (WSW) 3,157 9.3 -7.1°
Reaches altitude 10° 11:59:00 10° 235° (SW) 2,422 8.8 -6.7°
Maximum altitude 12:04:32 55° 158° (SSE) 1,348 8.1 -5.7°
Drops below altitude 10° 12:14:09 10° 84° (E) 4,119 11.4 -3.9°
Sets 12:18:37 0° 81° (E) 5,592 12.1 -3.0°
